Location: Recife
(8.0585°S, 34.8848°W)
Time: 12:56:36
(UTC-03:00)

Vanguard 1 - Pass Details

Date: 23 April 2026
Orbit: 654 x 3817 km, 34.3° (Epoch: 11 May)

Event Time Altitude Azimuth Distance (km) Brightness Sun altitude
Rises 04:41:01 0° 318° (NW) 6,605 14.0 -10.7°
Reaches altitude 10° 04:46:25 10° 323° (NW) 5,063 13.4 -9.4°
Maximum altitude 04:58:22 43° 30° (NNE) 2,045 12.1 -6.5°
Drops below altitude 10° 05:05:09 10° 100° (E) 2,916 13.9 -4.8°
Sets 05:07:24 0° 107° (ESE) 3,626 14.2 -4.3°
